Location: Gajan
(43.0218°N, 1.1244°E)
Time: 15:26:40
(UTC+00:00)

ATLAS 5 CENTAUR R/B - Pass Details

Date: 22 April 2021
Orbit: 516 x 1141 km, 63.3° (Epoch: 02 May)

Event Time Altitude Azimuth Distance (km) Brightness Sun altitude
Rises 23:17:33 0° 331° (NNW) 3,145 6.1 -33.8°
Reaches altitude 10° 23:20:25 10° 348° (NNW) 2,335 5.3 -33.9°
Maximum altitude 23:24:24 20° 36° (NE) 1,867 4.3 -34.0°
Enters shadow 23:27:06 15° 69° (ENE) 2,219 4.5 -34.1°
